« Back
NWS Peachtree City, Ga » Text Product » GA Regional Weather Roundup


Printer-friendly Version
Current Version              Previous Versions:   1  2  3  4  5  6  7  8  9  

Regional Weather Roundup

988
ASUS42 KFFC 100003
RWRGA
WEATHER ROUNDUP FOR GEORGIA
NATIONAL WEATHER SERVICE PEACHTREE CITY GA
700 PM EST TUE FEB 09 2016

NOTE: "FAIR" INDICATES FEW OR NO CLOUDS BELOW 12,000 FEET WITH NO
SIGNIFICANT WEATHER AND/OR OBSTRUCTIONS TO VISIBILITY.

* = USE WITH CAUTION. THE STATIONS MARKED WITH AN ASTERISK MAY NOT
REPORT WEATHER SUCH AS PRECIPITATION, FOG, OR THUNDER AND ARE NOT
QUALITY CONTROLLED BY NWS.

THE REMARK "TC" DENOTES TEMPERATURE READING IN DEGREES CELSIUS.

GAZ001>058-100100-
NORTH GEORGIA

CITY           SKY/WX    TMP DP  RH WIND       PRES   REMARKS
ATLANTA        PTCLDY    31  18  58 W12       29.96R WCI  22
6HR MIN TEMP:  31; 6HR MAX TEMP:  36; 6HR PCP: TRACE;

ATHENS         CLOUDY    31  21  66 W8G17     29.92R WCI  23
6HR MIN TEMP:  30; 6HR MAX TEMP:  36; 6HR PCP:  0.03;

CHAMBLEE       FLURRIES  30  21  69 NW17G24   29.95R WCI  18
6HR MIN TEMP:  30; 6HR MAX TEMP:  36; 6HR PCP: TRACE;

PEACHTREE CITY CLOUDY    33  18  53 NW8G16    29.98R WCI  26
6HR MIN TEMP:  33; 6HR MAX TEMP:  36;

ROME           CLOUDY    30  15  53 W13       30.00R WCI  20
6HR MIN TEMP:  30; 6HR MAX TEMP:  34; 6HR PCP: TRACE;

WEST ATLANTA   CLOUDY    32  18  56 NW10G21   29.97R WCI  24
6HR MIN TEMP:  31; 6HR MAX TEMP:  36; 6HR PCP: TRACE;

GAINESVILLE    FLURRIES  28  22  78 W14G20    29.92R WCI  17
6HR MIN TEMP:  27; 6HR MAX TEMP:  32; 6HR PCP: TRACE;

CARTERSVILLE   CLOUDY    30  19  63 CALM      30.00R
6HR MIN TEMP:  30; 6HR MAX TEMP:  35; 6HR PCP: TRACE;



CITY           SKY/WX    TMP DP  RH WIND       PRES   REMARKS
LAWRENCEVILLE* MOCLDY    30  18  59 W14G23    29.92R WCI  20
MARIETTA       FLURRIES  30  21  69 NW22      29.95R WCI  17
KENNESAW*      CLOUDY    28  14  54 NW12G20   29.97R WCI  18
BLAIRSVILLE*   LGT SNOW  25   6  44 NW7G16    29.86R WCI  18
$$

GAZ059>098-102>109-100100-
CENTRAL GEORGIA

CITY           SKY/WX    TMP DP  RH WIND       PRES   REMARKS
AUGUSTA-BUSH   CLOUDY    38  20  48 W20G26    29.92R WCI  28
6HR MIN TEMP:  38; 6HR MAX TEMP:  41;

AUGUSTA-DANIEL CLOUDY    38  19  46 W9G20     29.91R WCI  31
6HR MIN TEMP:  38; 6HR MAX TEMP:  40;

COLUMBUS       MOCLDY    39  18  42 N8        29.99R WCI  33
6HR MIN TEMP:  39; 6HR MAX TEMP:  43;

MACON          CLOUDY    34  23  64 W8        29.99R WCI  27
6HR MIN TEMP:  34; 6HR MAX TEMP:  42; 6HR PCP: TRACE;

ROBINS AFB     MOCLDY    35  23  60 NW9       29.99R WCI  28


CITY           SKY/WX    TMP DP  RH WIND       PRES   REMARKS
LAGRANGE*      CLOUDY    39  25  57 NW7       29.99R WCI  34
SYLVANIA*      CLOUDY    42  28  57 NW7       29.92R
MILLEDGEVILLE* MOCLDY    36  21  55 NW7G18    29.97R WCI  30
$$

GAZ099>101-110>166-100100-
SOUTH GEORGIA

CITY           SKY/WX    TMP DP  RH WIND       PRES   REMARKS
SAVANNAH       MOCLDY    43  24  47 NW6       29.92R
6HR MIN TEMP:  43; 6HR MAX TEMP:  50;

VALDOSTA       CLEAR     46  19  34 VRB5      29.96R
6HR MIN TEMP:  46; 6HR MAX TEMP:  56;

ALMA           CLOUDY    46  20  35 W12G18    29.93R
6HR MIN TEMP:  45; 6HR MAX TEMP:  50;

ST SIMONS      CLEAR     47  24  40 NW7       29.90R
6HR MIN TEMP:  47; 6HR MAX TEMP:  52;

FT STEWART     CLOUDY    44  24  44 NW6       29.90R
ALBANY         PTCLDY    44  15  31 NW10      30.00R
HUNTER AFB     CLOUDY    44  24  46 NW8       29.89R
MOODY AFB      CLEAR     46  18  32 W9        29.95R
BRUNSWICK      CLEAR     45  27  49 W3        29.92R


CITY           SKY/WX    TMP DP  RH WIND       PRES   REMARKS
BAINBRIDGE*    CLEAR     43  21  42 W7        30.00R
MOULTRIE*      PTCLDY    45  19  36 W7        29.96R
VIDALIA*       CLOUDY    43  21  42 NW13G21   29.94R
WAYCROSS*      PTCLDY    48  26  43 NW9       29.94R
DOUGLAS*       PTCLDY    46  18  31 NW7       29.97R
$$




USA.gov is the U.S. government's official web portal to all federal, state and local government web resources and services.